Other Surface Observations
Issued by NWS Tucson, AZ

Home | Current Version | Previous Version | Text Only | Print | Product List | Glossary On
Versions: 1 2 3 4 5 6 7 8 9 10 11 12 13 14 15 16 17 18 19 20 21 22 23 24 25 26 27 28 29 30 31 32 33 34 35 36 37 38 39 40 41 42 43 44 45 46 47 48 49 50
518
SXUS55 KTWC 262215
OSOTWC

WEATHER ROUNDUP FOR SOUTHEAST ARIZONA
NATIONAL WEATHER SERVICE TUCSON AZ
315 PM MST THU APR 26 2018

AZZ504>506-514-262315-
LOCATION       SKY/WX    TMP DP  RH WIND       PRES   REMARKS
TUCSON         MOSUNNY   94  23   8 NE7       29.91F
DAVIS-MONTHAN  PTSUNNY   95  21   7 W9        29.89F
CHILDRENS PARK N/A      N/A N/A   9 NW1               PIMA CO DEQ
ALVERNON/22ND  N/A       90 N/A N/A NW3               PIMA CO DEQ
CHERRY/GLENN   N/A      N/A N/A N/A N/A               PIMA CO DEQ
TANGERINE      N/A       91 N/A N/A W5                PIMA CO DEQ
CONTL RANCH    N/A       92  22   8 NW6               PIMA CO DEQ
GRANT/1ST      N/A       90  24   9 S16               PIMA CO DEQ
CRAYCROFT/22ND N/A       91  24   9 SW2               PIMA CO DEQ
GOLFLINKS/KOLB N/A      N/A N/A N/A N/A               PIMA CO DEQ
AJO/12TH       N/A       91  24   9 S4                PIMA CO DEQ
FAIRGROUNDS    N/A       89 N/A N/A NW6               PIMA CO DEQ
SAGUARO        N/A       95  22   7 SW3G10            *SABINO CYN
SAN CARLOS     N/A       93  20   7 S8G16             *SAN CARLOS
GREEN VALLEY   N/A       90  26  10 SE2               PIMA CO DEQ
HORSE CAMP CYN N/A       86  23  10 SW10G20           *ARAVAIPA CYN
RINCON MTNS    N/A       73  24  16 SW3G10            *NR MANNING CAMP
$$

AZZ509>511-262315-
LOCATION       SKY/WX    TMP DP  RH WIND       PRES   REMARKS
SAFFORD        PTSUNNY   91  12   5 MISG      29.88F
STRAY HORSE    N/A       69  14  12 CALM              *
TRAIL CABIN    N/A       81  17   9 W5G12             *N OF GRANVILLE
BLACK HILLS    NOT AVBL
DRY LAKE       N/A       74  18  12 SW5G10            *NATANES MTNS
NOON CREEK     N/A       84  24  11 NE3G10            *PINALENO MTNS
COLUMBINE      N/A       60  17  19 W4G10             *PINALENO MTNS
GUTHRIE        N/A       76  16  10 SW13G20           *SW OF GUTHRIE
$$

AZZ502-503-513-262315-
LOCATION       SKY/WX    TMP DP  RH WIND       PRES   REMARKS
NOGALES        CLOUDY    86  28  12 SW8       29.98F
SELLS          N/A       95  25   8 NE6G15            *
SASABE         N/A       89  26  10 S6G15             *ALTAR VLY
HOPKINS        N/A       77  29  17 S4G15             *SANTA RITA MTNS
CARR CYN       N/A       82  30  15 SE3G10            *W OF HEREFORD
$$

AZZ507-508-512-262315-
LOCATION       SKY/WX    TMP DP  RH WIND       PRES   REMARKS
SIERRA VISTA   PTSUNNY   84  24  11 E9G17     30.03
DOUGLAS        CLOUDY    85  26  11 S9        29.99F
EMPIRE MTNS    NOT AVBL
MULESHOE RANCH N/A       85  23  10 W4G14             *PRESERVE
HEADQUARTERS   N/A       83  23  11 SW4G10            *CHIRICAHUA MTNS
$$

.............................NOTES.............................
THIS IS AN AUTOMATED COLLECTIVE WITH MINIMAL QUALITY CONTROL.
PIMA CO DEQ SITES HAVE NONSTANDARD WIND SENSOR HEIGHTS.
PIMA CO DEQ SITES DO NOT REPORT WIND GUSTS.
* INDICATES WIND SENSORS LOCATED AT 20 FEET INSTEAD OF 33 FEET.
..............................KEY..............................
SKY/WX - SKY CONDITION/WEATHER
TMP    - TEMPERATURE IN FAHRENHEIT
DP     - DEWPOINT IN FAHRENHEIT
RH     - RELATIVE HUMIDITY IN PERCENT
WIND   - DIRECTION AND SPEED IN MILES PER HOUR (MPH)
VRB    - VARIABLE WIND DIRECTION
PRES   - MEAN SEA LEVEL PRESSURE IN INCHES OF MERCURY
         F - FALLING PRESSURE   R - RISING PRESSURE
         S - STEADY PRESSURE
VSB    - VISIBILITY IN MILES
HX     - HEAT INDEX IN FAHRENHEIT
WCI    - WIND CHILL INDEX IN FAHRENHEIT
N/A    - NOT AVAILABLE
AFB    - AIR FORCE BASE
         DAVIS-MONTHAN IS DAVIS-MONTHAN AIR FORCE BASE
CYN    - CANYON
MTNS   - MOUNTAINS
NCA    - NATIONAL CONSERVATION AREA
NR     - NEAR
VLY    - VALLEY
CONTL  - CONTINENTAL
PIMA CO DEQ - PIMA COUNTY DEPT OF ENVIRONMENTAL QUALITY



USA.gov is the U.S. government's official web portal to all federal, state and local government web resources and services.